Back to catalog

COSMOS 1823 DEB

AliveLEO
NORAD 39818·DEBRIS·🇷🇺 Russia

Launched Feb 20, 1987 from Plesetsk Cosmodrome

Loading…

Next Passes (next 24 hours)

TLE

FreshSource: Space-Track

Epoch: Sep 14, 2026, 08:12 UTC

1 39818U 87020ES  26257.34215078  .00000272  00000-0  18645-2 0  9995
2 39818  73.6151 127.4490 0027513 262.3573  97.4352 12.51628774544430

Track COSMOS 1823 DEB in real time with AllMySat

Download on the App Store